Regional Weather Roundup
Issued by NWS

Home | Current Version | Previous Version | Text Only | Print | Product List | Glossary On
Versions: 1 2 3 4 5 6 7 8 9 10 11 12 13 14 15 16 17 18 19 20 21 22 23 24 25 26 27 28 29 30 31 32 33 34 35 36 37 38 39 40 41 42 43 44 45 46 47 48 49 50
000
ASUS43 KMKX 050021
RWRWI

WISCONSIN REGIONAL WEATHER ROUNDUP
NATIONAL WEATHER SERVICE MILWAUKEE/SULLIVAN WI
700 PM CDT SAT JUL 04 2015

NOTE: "FAIR" INDICATES FEW OR NO CLOUDS BELOW 12,000 FEET WITH NO
SIGNIFICANT WEATHER AND/OR OBSTRUCTIONS TO VISIBILITY.

WIZ001-002-006>008-014>016-023>028-050100-
NORTHWEST WISCONSIN

CITY           SKY/WX    TMP DP  RH WIND       PRES   REMARKS
SUPERIOR ARPT  SUNNY     64  58  81 E8        29.91F
6HR MIN TEMP:  64; 6HR MAX TEMP:  69;

ASHLAND        SUNNY     66  60  81 N9        29.92F
6HR MIN TEMP:  66; 6HR MAX TEMP:  76;

HAYWARD        SUNNY     80  60  50 S7        29.92F HAZE    HX  81
6HR MIN TEMP:  80; 6HR MAX TEMP:  83;

SIREN          SUNNY     81  62  52 S7        29.90S HAZE    HX  82
6HR MIN TEMP:  81; 6HR MAX TEMP:  85;

CUMBERLAND     MOSUNNY   77  63  61 S6        29.92F HAZE
RICE LAKE      SUNNY     80  63  56 S7        29.93F HAZE    HX  81
6HR MIN TEMP:  78; 6HR MAX TEMP:  82;

CHETEK         NOT AVBL
LADYSMITH      SUNNY     80  63  56 S5        29.95S HX  81
6HR MIN TEMP:  80; 6HR MAX TEMP:  83;

EAU CLAIRE     SUNNY     80  64  58 SW7       29.92S HX  82
6HR MIN TEMP:  80; 6HR MAX TEMP:  84;

MENOMONIE      SUNNY     80  65  59 S6        29.92S HAZE    HX  82
6HR MIN TEMP:  80; 6HR MAX TEMP:  83;

NEW RICHMOND   SUNNY     79  65  62 S8        29.91F HAZE    HX  80
6HR MIN TEMP:  79; 6HR MAX TEMP:  82;

OSCEOLA        SUNNY     81  65  59 S7        29.92F HX  83
6HR MIN TEMP:  80; 6HR MAX TEMP:  83;

$$

WIZ003>005-009-010-017-018-050100-
NORTH CENTRAL WISCONSIN

CITY           SKY/WX    TMP DP  RH WIND       PRES   REMARKS
MANITOWISH WTR PTSUNNY   76  60  58 CALM      29.95S
6HR MIN TEMP:  74; 6HR MAX TEMP:  78;

ARBOR VITAE    PTSUNNY   77  59  53 CALM      29.96S
6HR MIN TEMP:  77; 6HR MAX TEMP:  80;

WOODRUFF       PTSUNNY   77  59  53 CALM      29.96S
6HR MIN TEMP:  77; 6HR MAX TEMP:  80;

RHINELANDER    PTSUNNY   78  58  49 S3        29.97S
6HR MIN TEMP:  78; 6HR MAX TEMP:  82;

EAGLE RIVER    PTSUNNY   73  54  49 CALM      29.96S
LAND O LAKES   PTSUNNY   76  54  46 CALM      29.97S
6HR MIN TEMP:  76; 6HR MAX TEMP:  80;

PHILLIPS       MOSUNNY   79  61  54 SW8       29.94S HX  80
6HR MIN TEMP:  77; 6HR MAX TEMP:  81;

TOMAHAWK       MOSUNNY   76  62  60 CALM      29.96S
6HR MIN TEMP:  75; 6HR MAX TEMP:  80;

MEDFORD        MOSUNNY   78  63  60 SW6       29.95F HAZE
6HR MIN TEMP:  77; 6HR MAX TEMP:  80;

MERRILL        MOSUNNY   79  61  52 SW7       29.96S HX  80
6HR MIN TEMP:  77; 6HR MAX TEMP:  82;

$$

WIZ029-030-035-036-043>047-050100-
CENTRAL WISCONSIN

CITY           SKY/WX    TMP DP  RH WIND       PRES   REMARKS
WAUSAU         MOSUNNY   80  60  50 SW6       29.93F HAZE    HX  81
6HR MIN TEMP:  78; 6HR MAX TEMP:  83;

MOSINEE        SUNNY     77  64  65 SW5       29.96F
MARSHFIELD     CLOUDY    79  65  62 S6        29.95F HAZE    HX  81
6HR MIN TEMP:  78; 6HR MAX TEMP:  83;

STEVENS POINT  MOSUNNY   78  62  57 S7        29.96S
6HR MIN TEMP:  75; 6HR MAX TEMP:  81;

WAUPACA        PTSUNNY   80  64  57 S6        29.95S HX  81
6HR MIN TEMP:  80; 6HR MAX TEMP:  85;

WAUTOMA        MOSUNNY   82  62  50 CALM      29.96S HX  83
6HR MIN TEMP:  81; 6HR MAX TEMP:  85;

WISC RAPIDS    PTSUNNY   80  62  54 SW6       29.96S HX  81
6HR MIN TEMP:  79; 6HR MAX TEMP:  83;

CAMP DOUGLAS   SUNNY     79  66  63 SW7       29.95F HX  81
6HR MIN TEMP:  79; 6HR MAX TEMP:  83;

$$

WIZ011>013-019>022-031-037>040-048>050-050100-
NORTHEAST WISCONSIN

CITY           SKY/WX    TMP DP  RH WIND       PRES   REMARKS
ANTIGO         MOSUNNY   75  64  68 S8        29.97S
SHAWANO        MOSUNNY   79  65  63 SE9       29.95S HX  81
6HR MIN TEMP:  79; 6HR MAX TEMP:  83;

OCONTO         MOSUNNY   73  63  72 SE7       29.96S
6HR MIN TEMP:  73; 6HR MAX TEMP:  79;

STURGEON BAY   SUNNY     66  57  72 SE6       30.00S
6HR MIN TEMP:  68; 6HR MAX TEMP:  73;

GREEN BAY      MOSUNNY   76  64  66 SE9       29.96S
6HR MIN TEMP:  76; 6HR MAX TEMP:  83;

MANITOWOC      MOSUNNY   67  61  81 MISG      29.99S
6HR MIN TEMP:  67; 6HR MAX TEMP:  72;

APPLETON       PTSUNNY   79  61  53 S7        29.96F HX  80
CLINTONVILLE   MOSUNNY   79  61  53 S6        29.94S HX  80
OSHKOSH        MOSUNNY   78  62  57 SW6       29.95F HX  80
6HR MIN TEMP:  78; 6HR MAX TEMP:  82;

$$

WIZ032>034-041-042-053>061-050100-
SOUTHWEST WISCONSIN

CITY           SKY/WX    TMP DP  RH WIND       PRES   REMARKS
LA CROSSE      SUNNY     81  64  56 S9        29.93F HX  82
6HR MIN TEMP:  81; 6HR MAX TEMP:  84;

SPARTA         SUNNY     80  61  53 SW5       29.95F HX  81
6HR MIN TEMP:  80; 6HR MAX TEMP:  84;

VIROQUA        SUNNY     77  63  61 SW6       29.98S
6HR MIN TEMP:  77; 6HR MAX TEMP:  81;

BOSCOBEL       SUNNY     80  63  55 W5        29.96S HX  81
6HR MIN TEMP:  80; 6HR MAX TEMP:  84;

PRAIRIE DU CHI SUNNY     78  60  53 S3        29.96S
6HR MIN TEMP:  78; 6HR MAX TEMP:  81;

PLATTEVILLE    SUNNY     77  61  56 SW3       29.98F
6HR MIN TEMP:  77; 6HR MAX TEMP:  80;

$$

WIZ056-057-062-063-064-067-068-050100-
SOUTH CENTRAL WISCONSIN

CITY           SKY/WX    TMP DP  RH WIND       PRES   REMARKS
REEDSBURG      SUNNY     78  63  59 SW6       29.96F
6HR MIN TEMP:  78; 6HR MAX TEMP:  81;

BARABOO/DELLS  SUNNY     77  61  58 SW6       29.97S
6HR MIN TEMP:  77; 6HR MAX TEMP:  81;

LONE ROCK      SUNNY     79  61  53 SW5       29.97S HX  80
6HR MIN TEMP:  79; 6HR MAX TEMP:  82;

MINERAL POINT  SUNNY     79  59  50 W3        29.99F HX  80
MADISON        MOSUNNY   79  61  53 CALM      29.97S HX  80
6HR MIN TEMP:  79; 6HR MAX TEMP:  82;

MIDDLETON      SUNNY     79  59  50 W5        29.99S HX  80
6HR MIN TEMP:  79; 6HR MAX TEMP:  83;

WATERTOWN      SUNNY     77  62  60 SW5       29.97F
6HR MIN TEMP:  77; 6HR MAX TEMP:  80;

MONROE         MOSUNNY   77  61  57 W3        29.99S
JANESVILLE     MOSUNNY   81  61  50 SW6       29.97F HX  81
$$

WIZ051-052-058>065-066-070>072-050100-
SOUTHEAST WISCONSIN

CITY           SKY/WX    TMP DP  RH WIND       PRES   REMARKS
MILWAUKEE      PTSUNNY   76  59  55 S9        29.98S
6HR MIN TEMP:  76; 6HR MAX TEMP:  80;

WAUKESHA       MOSUNNY   75  61  60 W6        29.99F
MILWAUKEE/TIMM MOSUNNY   79  57  47 SW6       29.98S HX  80
RACINE         SUNNY     73  53  49 S9        30.00S
6HR MIN TEMP:  73; 6HR MAX TEMP:  79;

BURLINGTON     SUNNY     75  64  69 CALM      29.98F
6HR MIN TEMP:  75; 6HR MAX TEMP:  78;

KENOSHA        SUNNY     76  59  55 S7        29.99S
6HR MIN TEMP:  76; 6HR MAX TEMP:  81;

FOND DU LAC    MOSUNNY   79  64  60 S6        29.96F HX  81
6HR MIN TEMP:  79; 6HR MAX TEMP:  82;

SHEBOYGAN      PTSUNNY   74  61  63 S5        29.97F
6HR MIN TEMP:  74; 6HR MAX TEMP:  82;

WEST BEND      SUNNY     77  59  53 SW3       29.97F
JUNEAU         SUNNY     77  62  60 S5        29.98F
6HR MIN TEMP:  77; 6HR MAX TEMP:  79;

$$

LSZ147-162-050100-
LAKE SUPERIOR

STATION/POSITION TIME  TEMP    WIND        PRES    WAVE
                       AIR SEA DIR/SP/G            HT/PER
                 (UTC) (F)     (DEG/KT/KT) (MB)    (FT/S)
W MID LAKE BUOY  2350   44 39   70/  8/ 10 1013.7F   0
DEVILS ISLAND    0000   58      70/ 10/ 12 1013.5F
SAXON HARBOR     2300   65        CALM     1013.5
$$

LMZ867-665-643>646-050100-
LAKE MICHIGAN

STATION/POSITION TIME  TEMP    WIND        PRES    WAVE
                       AIR SEA DIR/SP/G            HT/PER
                 (UTC) (F)     (DEG/KT/KT) (MB)    (FT/S)
CHAMBERS ISLAND  2300   73     110/  4/  7 1014.9F
S GREEN BAY BUOY 2300   73 70  150/ 10/ 12 1015.9



USA.gov is the U.S. government's official web portal to all federal, state and local government web resources and services.